Location: Bovenkerk
(52.2915°N, 4.8336°E)
Time: 02:00:32
(UTC+00:00)

N. Korean satellite - Pass Details

Date: 11 March 2021
Orbit: 453 x 499 km, 97.2° (Epoch: 11 April)

Event Time Altitude Azimuth Distance (km) Brightness Sun altitude
Rises 04:54:48 0° 17° (NNE) 2,548 10.6 -11.4°
Reaches altitude 10° 04:56:54 10° 23° (NNE) 1,672 9.7 -11.1°
Maximum altitude 05:00:24 48° 100° (E) 644 7.7 -10.5°
Drops below altitude 10° 05:03:55 10° 176° (S) 1,682 9.3 -10.0°
Sets 05:06:03 0° 182° (S) 2,565 10.2 -9.7°
